{"data":{"norad_id":63464,"epoch":"2026-09-20T05:24:01.277856Z","epoch_age_seconds":180126,"freshness":"STALE","line1":"1 63464U 25070E   26263.22501479  .00016614  00000+0  61163-3 0  9993","line2":"2 63464  42.9974 241.5535 0001144 265.5136  94.5585 15.27595114 82728","mean_motion":15.27595114,"eccentricity":0.0001144,"inclination_deg":42.9974,"raan_deg":241.5535,"arg_perigee_deg":265.5136,"mean_anomaly_deg":94.5585,"bstar":0.00061163,"rev_number":8272,"period_min":94.265816040048,"perigee_km":482.2189251475,"apogee_km":483.78875417162,"semimajor_km":6861.1408396596,"source":"CELESTRAK","updated_at":"2026-09-21T09:00:35.007825Z"}}